DMSP 5D-2 F13 DEB, 40404

Orbit data source: Space-Track

DMSP 5D-2 F13 DEB, 40404 is space debris in SSO originally from a launch on Fri, 24 Mar 1995 UTC launched from the Air Force Western Test Range (AFWTR). Debris objects in space refer to the collection of defunct objects orbiting the Earth. Examples of debris include non-operational satellites, rocket bodies, and fragments generated from explosions, collisions, or faulty payload assembly.

Loading next visibility...
Identifier
40404, 1995-015R
Orbit
SSO
Country
Flag of USUS
Related business
Manufacturer
Unknown
Mission
Spacecraft
Bus & Motor
Unknown
Mass
Unknown
Launch date (UTC)
1995-03-24 (31 years ago)
Launch vehicle
Unknown
Launch site
Air Force Western Test Range (AFWTR)
Object type
Payload
Rocket body
Debris
Shape & HBR
Unknown shape, 0.1 m
Radar Cross Section
Medium (>0.1 m² and <1 m²)

Expand to show TLE details & history
Last TLE update: 2 days ago

TLE from 2 days ago
0 DMSP 5D-2 F13 DEB
1 40404U 95015R   26170.97293922  .00000297  00000-0  16352-3 0  9999
2 40404  98.7872 187.0302 0006892 126.5127 233.6685 14.18936556585071
Epoch: 2026-06-19T23:21Z
TLE epoch observation values (Epoch: 2026-06-19T23:21:01.948Z)
Latitude
0.00004°
Longitude
-71.42216°
Altitude
834.808 km
Speed
7.434 km/s
True Right ascension
12h 28m 07s
True Declination
0° 00' 00"
Sunlit
Object was in daylight at epoch
Visualization orbit readout
Latitude
Unknown
Longitude
Unknown
Altitude
Unknown
Speed
Unknown
Apparent Right ascension
Unknown
Apparent Declination
Unknown
Sunlit
N/A
Visualization observer readout
Local Sidereal Time
17:49:01
Azimuth
Unknown
Elevation
Unknown
Doppler factor
Unknown
Orbital elements
Apogee altitude
831.08 km
Perigee altitude
821.15 km
Semi-major axis
7,204.252 km
Eccentricity
0.00069
Inclination
98.7872°
RAAN
187.0302°
Arg. of periapsis
126.5127°
True anomaly
233.60491°
Mean anomaly
233.6685°
Eccentric anomaly
233.6367°
Mean motion
3.54944 °/min
Orbital period
101.42 mins
BSTAR
0.00016352

Documentation

Showing up to 5 results
|